Other Public Products
Issued by NWS Grand Forks, ND

Home | Current Version | Previous Version | Text Only | Print | Product List | Glossary Off
Versions: 1 2 3 4 5 6 7 8 9 10 11 12 13 14 15 16 17 18 19 20 21 22 23 24 25 26 27 28 29 30 31 32 33 34 35 36 37 38 39 40 41 42 43 44 45 46 47 48 49 50

785
FPUS83 KFGF 251710
OPUFGF
PRAIRIE TO PINES WEATHER ROUNDUP
NATIONAL WEATHER SERVICE EASTERN NORTH DAKOTA/GRAND FORKS ND
1200 PM CDT THU MAY 25 2017

 **SATELLITE DATA USED TO AUGMENT SKY COVER AT AUTOMATED STATIONS**
 *****  WEATHER ACROSS EASTERN NORTH DAKOTA  *****

CITY           SKY/WX    TMP DP  RH WIND       PRES   REMARKS
GRAND FORKS    PTSUNNY   68  47  46 S26G36    29.50F
GRAND FORKS AF NOT AVBL
GRAND CITY NWS NOT AVBL
BUXTON         NOT AVBL
DEVILS LAKE    CLOUDY    60  46  59 S18       29.45F
FARGO          CLOUDY    65  48  54 SE22G38   29.51F
WAHPETON ARPT  FAIR      66  45  45 SE28G35   29.52F
$$

 *****  WEATHER ACROSS CENTRAL AND WESTERN NORTH DAKOTA  *****

CITY           SKY/WX    TMP DP  RH WIND       PRES   REMARKS
JAMESTOWN      CLOUDY    63  47  55 S17G25    29.43S
BISMARCK       FAIR      66  47  50 NW8       29.43S
MINOT          FAIR      67  38  34 SW13G23   29.36S
MINOT AFB      NOT AVBL
GARRISON         N/A     64  38  38 W15       29.38F
WILLISTON      CLOUDY    55  44  66 SW17G25   29.36S
DICKINSON      FAIR      62  35  36 W26G37    29.41S
HETTINGER      FAIR      63  31  30 W24G31    29.48R
$$

 *****  OTHER OBSERVATIONS NORTHEAST NORTH DAKOTA  *****

CITY           SKY/WX    TMP DP  RH WIND       PRES   REMARKS
WALHALLA       NOT AVBL
LANGDON        PTSUNNY   61  48  63 SE29G37   29.47F
CAVALIER       FAIR      63  46  55 SE18G30   29.49F
GRAFTON        FAIR      66  48  52 S26       29.52F
CANDO          NOT AVBL
FORT TOTTEN      N/A     61  48  62 S13       29.95S
ROLLA          FAIR      50  50 100 S21G26    29.43S FOG
RUGBY          NOT AVBL
 ***** THE ABOVE OBSERVATIONS ARE NON NWS ARE NOT QUALITY
        CONTROLLED AND MAY MIS-REPORT RAIN FOR SNOW...
$$

 *****  OTHER OBSERVATIONS SOUTHEAST NORTH DAKOTA *****

CITY           SKY/WX    TMP DP  RH WIND       PRES   REMARKS
COOPERSTOWN    CLOUDY    64  46  52 SE24      29.47S
VALLEY CITY    CLOUDY    64  48  55 SE14G26   29.47F
OAKES          NOT AVBL
GWINNER        PTSUNNY   70  46  43 MISG      29.46S
SHEYENNE NWR     N/A     68  48  49 S22       29.95S
BUFFALO        NOT AVBL
WYNDMERE         N/A     70  48  46 S25         N/A
 ***** THE ABOVE OBSERVATIONS ARE NON NWS ARE NOT QUALITY
       CONTROLLED AND MAY MIS-REPORT RAIN FOR SNOW...
$$

  *****  WEATHER ACROSS NORTHERN MINNESOTA  *****

CITY           SKY/WX    TMP DP  RH WIND       PRES   REMARKS
FLAG ISLAND    PTSUNNY   57  46  67 S17       29.62S
WARROAD        FAIR      63  48  59 SE21      29.62S
ROSEAU         FAIR      63  48  59 S16       29.60S
HALLOCK        FAIR      64  46  52 S23G31    29.53F
THF RVR FALLS  PTSUNNY   63  45  51 S17       29.59S
HALSTAD          N/A     65  46  50 S29         N/A
FOSSTON        PTSUNNY   63  46  55 SE16G22   29.59F
BAUDETTE       PTSUNNY   65  46  50 SE16      29.63F
WASKISH        CLOUDY    63  46  55 SE15G22   29.64S
CROOKSTON      FAIR      66  46  48 S23G30    29.55F
$$
  *****  WEATHER ACROSS CENTRAL AND WEST MINNESOTA  *****

CITY           SKY/WX    TMP DP  RH WIND       PRES   REMARKS
BEMIDJI        PTSUNNY   62  45  53 SE17G23   29.63S
PARK RAPIDS    LGT RAIN  64  43  46 S20G25    29.62S
WADENA         FAIR      61  46  59 SE17G24   29.62S
DETROIT LAKES  FAIR      63  46  55 S18G26    29.59S
MOORHEAD       FAIR      64  46  52 SE26G32   29.53F
FERGUS FALLS   FAIR      64  46  52 S25G33    29.55S
ELBOW LAKE     FAIR      64  50  59 SE22G30   29.57F
MORRIS MN      FAIR      66  52  59 S23G32    29.56F
STAPLES        PTSUNNY   61  45  55 SE12G18   29.64S
WHEATON        FAIR      66  48  52 SE28G35   29.53F
$$
  *****  WEATHER ELSEWHERE ACROSS MINNESOTA  *****

CITY           SKY/WX    TMP DP  RH WIND       PRES   REMARKS
DULUTH         FAIR      59  48  67 E10       29.72F
INTRNTL FALLS  FAIR      65  44  46 SE16G22   29.66F
ELY            PTSUNNY   61  43  51 SE10G22   29.73R
CLOQUET        FAIR      57  45  62 E12       29.71S
BRAINERD       CLOUDY    60  46  59 SE10G22   29.67R
HIBBING        PTSUNNY   61  44  53 SE17G23   29.69F
ALEXANDRIA     PTSUNNY   64  45  49 SE24G31   29.61F
SAINT CLOUD    FAIR      61  50  67 S12       29.66S
MINNEAPOLIS    PTSUNNY   66  48  52 S13       29.68S
$$

  *****  WEATHER ACROSS SOUTH DAKOTA  *****

CITY           SKY/WX    TMP DP  RH WIND       PRES   REMARKS
SIOUX FALLS    FAIR      67  51  56 S25G32    29.53F
BROOKINGS      FAIR      65  47  52 S28G37    29.51F
WATERTOWN      FAIR      65  48  54 S22G40    29.49R
HURON          FAIR      69  50  50 S18G32    29.45R
SISSETON         N/A     69  49  48 S30G40    29.48F
ABERDEEN       FAIR      68  45  43 S18G26    29.44R
MITCHELL       FAIR      72  49  44 S24G33    29.46S
PIERRE         PTSUNNY   62  46  55 NW14      29.46R
MOBRIDGE       FAIR      64  49  57 NW14      29.42R
RAPID CITY     FAIR      65  27  23 N14       29.52F
$$

  *****  SOME WEATHER IN NEARBY STATES *****

CITY           SKY/WX    TMP DP  RH WIND       PRES   REMARKS
GLASGOW MT     CLOUDY    58  42  55 W30G39    29.37R
GREAT FALLS MT CLOUDY    56  36  47 NW24G37   29.70S
CHEYENNE WY    PTSUNNY   62  40  44 NW12      29.66S
SCOTTSBLUFF NE FAIR      68  44  42 W8        29.57S
OMAHA NE       FAIR      70  47  43 S21       29.63F
DES MOINES IA  FAIR      66  49  54 S5        29.70F
DAVENPORT IA   PTSUNNY   64  53  67 N8        29.70F
CHICAGO IL     CLOUDY    63  52  67 N12       29.62S
EAU CLAIRE WI  FAIR      65  49  56 CALM      29.69F
LA CROSSE WI   FAIR      64  53  67 W6        29.69F
$$

  *****  SOME NATIONAL WEATHER *****

CITY           SKY/WX    TMP DP  RH WIND       PRES   REMARKS
LA GUARDIA NY  LGT RAIN  57  56  96 NE15      29.60F FOG
RALEIGH NC     FAIR      73  57  57 SW16G28   29.56F
ATLANTA GA     PTSUNNY   68  51  54 W13G22    29.80R
NEW ORLEANS LA FAIR      78  52  40 SW8       29.91S
OKLAHOMA CITY  FAIR      76  55  48 S14G22    29.61F
ALBUQUERQUE NM PTSUNNY   78  21  12 W13G20    29.86F
SALT LAKE CITY PTSUNNY   62  35  36 W8        29.73S
LOS ANGELES CA CLOUDY    62  50  64 SW6       29.88R
BOISE ID       FAIR      57  34  41 W10       29.76F
SEATTLE WA     FAIR      58  46  64 NW6       29.91F
$$

*** WEATHER ACROSS MANITOBA...SASKATCHEWAN AND ONTARIO ***
                ***ONTARIO***

CITY           SKY/WX    TMP DP  RH WIND       PRES   REMARKS
GERALDTON      PTSUNNY   66  43  42 E12       29.77F
THUNDER BAY    MOSUNNY   64  46  52 E13       29.76F
SIOUX LOOKOUT  MOSUNNY   64  41  42 SE16G23   29.70F
TORONTO        LGT RAIN  52  50  93 E18G32    29.55F FOG
BIG TROUT LK   SUNNY     70  34  26 S8        29.75S
PICKLE LAKE    MOSUNNY   68  25  19 SE12G22   29.75F
DRYDEN         SUNNY     64  41  42 S17G24    29.69S
KENORA         PTSUNNY   63  43  48 S17G24    29.65S
$$
                *** MANITOBA***

CITY           SKY/WX    TMP DP  RH WIND       PRES   REMARKS
BRANDON        CLOUDY    55  50  82 S18G29    29.39F
DAUPHIN        CLOUDY    57  48  72 S17G23    29.36F
ISLAND LAKE    NOT AVBL
PILOT MOUND      N/A     52  46  82 SE17G24     N/A
THE PAS        LGT RAIN  52  48  87 SE13G18   29.39S FOG
THOMPSON       PTSUNNY   66  36  32 S7G24     29.54S
WINNIPEG       CLOUDY    61  45  55 SE20G29   29.53F
LYNN LAKE      SUNNY     61  39  44 SE18G30   29.48S
CHURCHILL      MOSUNNY   52  45  76 E10       29.65F
GILLAM         MOSUNNY   73  34  23 S15G25    29.62S
$$
                ***SASKATCHEWAN***

CITY           SKY/WX    TMP DP  RH WIND       PRES   REMARKS
ESTEVAN        PTSUNNY   55  46  71 SW25      29.30S
KINDERSLEY     CLOUDY    46  45  93 N12G21    29.40R
LLOYDMINSTER   LGT RAIN  46  45  93 N23G36    29.47R
PRINCE ALBERT  PTSUNNY   59  45  58 NE12      29.28R
REGINA         LGT RAIN  48  46  93 W12       29.21R
YORKTON          N/A     59  41  51 S8        29.25F



USA.gov is the U.S. government's official web portal to all federal, state and local government web resources and services.